Preview of NWS' New Version of Forecast
This preview is not operational and should not be used for support decisions.

Regional Weather Roundup (RWR)

Issued by Gray - Portland, ME (GYX)

                            
205 
ASUS41 KGYX 180405
RWRGYX
WEATHER ROUNDUP FOR MAINE AND NEW HAMPSHIRE
NATIONAL WEATHER SERVICE GRAY ME
1100 PM EST SAT FEB 17 2018

MEZ002-005-006-010-012-015-018-020-021-024-026-027-029-180500-
MAINE
  
CITY           SKY/WX    TMP DP  RH WIND       PRES   REMARKS
PORTLAND       LGT SNOW  33  32  96 S12       30.14F VSB 1            
SANFORD        LGT SNOW  30  29  96 CALM      30.13F VSB 1            
BAR HARBOR     CLOUDY    32  24  72 S12       30.19F                  
WISCASSET      LGT SNOW  33  30  88 S9G17     30.16F FOG              
ROCKLAND       CLOUDY    35  25  66 S15       30.16F                  
FRYEBURG       LGT SNOW  26  25  96 CALM      30.11F FOG              
LEWISTONAUBURN LGT SNOW  28  26  92 CALM      30.13F FOG              
AUGUSTA        LGT SNOW  27  20  75 CALM      30.13F                  
WATERVILLE     MIX PCPN  26  20  77 CALM      30.08F                  
BANGOR         CLOUDY    26  19  74 CALM      30.18F                  
GREENVILLE       N/A     19  11  70 SE9       30.02F                  
MILLINOCKET    CLOUDY    22  10  60 VRB5      30.16F                  
HOULTON        FAIR      20   4  50 S9        30.13F                  
PRESQUE ISLE   FAIR      18   3  52 SE8       30.11F                  
FRENCHVILLE    MOCLDY    16   1  51 S10       30.04F WCI   4          
CARIBOU        FAIR      19   2  47 S13       30.09F WCI   6          
$$

NHZ002-005-008-009-011-012-014-180500-
NEW HAMPSHIRE
  
CITY           SKY/WX    TMP DP  RH WIND       PRES   REMARKS
PORTSMOUTH     LGT SNOW  32  30  94 SW5       30.13S FOG              
ROCHESTER      LGT SNOW  30  29  96 S3        30.11F VSB 3/4          
NASHUA         SNOW      29  29 100 CALM      30.12F VSB 1/2          
MANCHESTER     SNOW      29  28  96 SE3       30.10F VSB 1/2          
CONCORD        LGT SNOW  28  26  92 CALM      30.10F VSB 3/4          
LACONIA        LGT SNOW  27  25  93 CALM      30.10F FOG              
PLYMOUTH       LGT SNOW  26  23  89 CALM      30.10F                  
BERLIN         CLOUDY    27  14  58 S5        30.03F                  
WHITEFIELD     FLURRIES  28  19  69 S8        30.02F                  
JAFFREY        SNOW      28  28 100 CALM      30.05F VSB 1/2          
KEENE          LGT SNOW  28  26  92 CALM      30.09F FOG              
LEBANON        LGT SNOW  29  27  92 CALM      30.06F FOG              
MT WASHINGTON  SNOW       5   5 100 SW37G45     N/A  VSB 1/16WCI -21  
$$

VTZ005-007-008-180500-
VERMONT
  
CITY           SKY/WX    TMP DP  RH WIND       PRES   REMARKS
ST JOHNSBURY     N/A     26  23  88 MISG      30.03F                  
MONTPELIER     LGT SNOW  26  22  84 S6        30.04F FOG              
BURLINGTON     FLURRIES  32  23  69 S12       30.02F                  
$$

MAZ007-012-024-CTZ003-RIZ002-NYZ038-NYZ072-180500-
SOUTHERN NEW ENGLAND AND NY
  
CITY           SKY/WX    TMP DP  RH WIND       PRES   REMARKS
BOSTON         LGT SNOW  32  30  92 SE8       30.12F VSB 3/4          
WORCESTER      SNOW      27  25  92 CALM      30.05F VSB 1/2          
NANTUCKET      LGT RAIN  38  37  97 E14G23    30.10F                  
PROVIDENCE     LGT SNOW  33  33 100 E5        30.08F VSB 1            
HARTFORD       SNOW      29  29 100 N5        30.09F VSB 1/2          
ALBANY         LGT SNOW  31  26  82 S7        30.05F                  
NEW YORK CITY  LGT SNOW  33  32  96 NE5       30.04F VSB 1            
$$

ANZ081-ANZ082-ANZ150-NHZ014-MEZ023>029-180500-
COASTAL MARINE OBSERVATIONS
  
STATION/POSITION TIME  TEMP    WIND        PRES    WAVE
                       AIR SEA DIR/SP/G            HT/PER
                 (UTC) (F)     (DEG/KT/KT) (MB)    (FT/S)
MOUNT DESERT ROC 0400   35     150/ 25/ 28 1022.8F
MATINICUS ROCK   0300   35     180/ 24/ 25 1022.9F
ISLE OF SHOALS   0300   32     160/ 25/ 27 1020.6F
JEFFREYS LEDGE   0336      42                N/A     5/ 5
GEORGES BANK BUO 0250   29 42              1029.1   13/11
$$

.............KEY..............
   WCI - WIND CHILL
   TC  - TEMPERATURE IN CELSIUS
   VSB - VISIBILITY IN MILES
   HX  - HEAT INDEX
   FAIR- INDICATES FEW OR NO CLOUDS BELOW 12,000 FT, WITH NO 
         SIGNIFICANT WEATHER AND/OR OBSTRUCTIONS TO VISIBILITY.